Weather History for Brunswick, GA

Change the Weather History Date:

Friday, January 13, 2012

  Actual Average Record
Temperature  
Mean Temperature 46 °F -  
Max Temperature 57 °F 59 °F 83 °F (1932)
Min Temperature 35 °F 36 °F 15 °F (1981)
Degree Days  
Heating Degree Days 19    
Moisture  
Dew Point 24 °F    
Average Humidity 43    
Maximum Humidity 65    
Minimum Humidity 24    
Precipitation  
Precipitation 0.00 in - - ()
Sea Level Pressure  
Sea Level Pressure 30.09 in    
Wind  
Wind Speed 11 mph (West)    
Max Wind Speed 17 mph    
Max Gust Speed 25 mph    
Visibility 10 miles    
Events      
Averages and records for this station are not official NWS values.
T = Trace of Precipitation, MM = Missing Value Source: NWS Daily Summary

Daily Weather History Graph

Daily Weather History Graph

Search for Another Location

Airport:

Trip Planner

Search our weather history database for the weather conditions in past years. The results will help you decide how hot, cold, wet, or windy it might be!

Date:

Astronomy

Jan. 13, 2012 Rise Set
Actual Time 7:25 AM EST 5:43 PM EST
Civil Twilight 6:59 AM EST 6:09 PM EST
Nautical Twilight 6:29 AM EST 6:39 PM EST
Astronomical Twilight 6:00 AM EST 7:09 PM EST
Moon 10:31 PM EST (1/13) 10:00 AM EST (1/13)
Length of Visible Light 11h 10m
Length of Day
10h 18m
Waning Gibbous, 79% of the Moon is Illuminated
Jan 13
Waning Gibbous
Jan 16
Last Quarter
Jan 23
New
Jan 30
First Quarter
Feb 7
Full

Hourly Weather History & Observations

Time (EST) Temp. Windchill Dew Point Humidity Pressure Visibility Wind Dir Wind Speed Gust Speed Precip Events Conditions
12:15 AM 57.2 °F - 42.8 °F 59% 29.89 in 10.0 mi West 15.0 mph 24.2 mph N/A   Clear
12:35 AM 55.4 °F - 42.8 °F 63% 29.90 in 10.0 mi WNW 12.7 mph 23.0 mph N/A   Clear
12:55 AM 53.6 °F - 41.0 °F 62% 29.90 in 10.0 mi West 11.5 mph 18.4 mph N/A   Clear
1:15 AM 53.6 °F - 39.2 °F 58% 29.92 in 10.0 mi WNW 11.5 mph 18.4 mph N/A   Clear
1:35 AM 51.8 °F - 33.8 °F 50% 29.94 in 10.0 mi WNW 15.0 mph 20.7 mph N/A   Clear
1:55 AM 50.0 °F - 32.0 °F 50% 29.96 in 10.0 mi West 17.3 mph 24.2 mph N/A   Clear
2:15 AM 50.0 °F - 32.0 °F 50% 29.96 in 10.0 mi West 13.8 mph 21.9 mph N/A   Clear
2:35 AM 48.2 °F - 32.0 °F 54% 29.98 in 10.0 mi West 10.4 mph 17.3 mph N/A   Clear
2:55 AM 46.4 °F 41.1 °F 32.0 °F 57% 29.98 in 10.0 mi WNW 11.5 mph 19.6 mph N/A   Clear
3:15 AM 46.4 °F 40.7 °F 32.0 °F 57% 30.00 in 10.0 mi West 12.7 mph 20.7 mph N/A   Clear
3:35 AM 46.4 °F 41.1 °F 32.0 °F 57% 30.01 in 10.0 mi West 11.5 mph 16.1 mph N/A   Clear
3:55 AM 44.6 °F 39.2 °F 32.0 °F 61% 30.02 in 10.0 mi WNW 10.4 mph - N/A   Clear
4:15 AM 44.6 °F 37.8 °F 24.8 °F 46% 30.03 in 10.0 mi WNW 15.0 mph 25.3 mph N/A   Clear
4:35 AM 42.8 °F 35.4 °F 23.0 °F 46% 30.04 in 10.0 mi West 15.0 mph 19.6 mph N/A   Clear
4:55 AM 42.8 °F 39.3 °F 23.0 °F 46% 30.06 in 10.0 mi WNW 5.8 mph 19.6 mph N/A   Clear
5:15 AM 41.0 °F 39.0 °F 23.0 °F 49% 30.07 in 10.0 mi WNW 3.5 mph - N/A   Clear
5:35 AM 41.0 °F 35.8 °F 23.0 °F 49% 30.08 in 10.0 mi WNW 8.1 mph - N/A   Clear
5:55 AM 41.0 °F 34.3 °F 23.0 °F 49% 30.10 in 10.0 mi West 11.5 mph 18.4 mph N/A   Clear
6:15 AM 37.4 °F 32.8 °F 21.2 °F 52% 30.11 in 10.0 mi WNW 5.8 mph - N/A   Clear
6:35 AM 37.4 °F 33.8 °F 23.0 °F 56% 30.11 in 10.0 mi WNW 4.6 mph - N/A   Clear
6:55 AM 35.6 °F 31.7 °F 23.0 °F 60% 30.12 in 10.0 mi West 4.6 mph - N/A   Clear
7:15 AM 35.6 °F 30.7 °F 24.8 °F 65% 30.13 in 10.0 mi West 5.8 mph - N/A   Clear
7:35 AM 35.6 °F 30.7 °F 23.0 °F 60% 30.13 in 10.0 mi West 5.8 mph - N/A   Clear
7:55 AM 35.6 °F 31.7 °F 24.8 °F 65% 30.14 in 10.0 mi West 4.6 mph - N/A   Clear
8:15 AM 37.4 °F 32.1 °F 24.8 °F 60% 30.15 in 10.0 mi West 6.9 mph - N/A   Clear
8:35 AM 37.4 °F 32.1 °F 23.0 °F 56% 30.16 in 10.0 mi West 6.9 mph - N/A   Clear
8:55 AM 39.2 °F 31.6 °F 23.0 °F 52% 30.16 in 10.0 mi West 12.7 mph 23.0 mph N/A   Clear
9:15 AM 41.0 °F 34.3 °F 23.0 °F 49% 30.17 in 10.0 mi WNW 11.5 mph 16.1 mph N/A   Clear
9:35 AM 41.0 °F 33.5 °F 21.2 °F 45% 30.17 in 10.0 mi WNW 13.8 mph 18.4 mph N/A   Clear
9:55 AM 42.8 °F 36.2 °F 21.2 °F 42% 30.17 in 10.0 mi West 12.7 mph 17.3 mph N/A   Clear
10:15 AM 42.8 °F 36.6 °F 19.4 °F 39% 30.17 in 10.0 mi WNW 11.5 mph 21.9 mph N/A   Clear
10:35 AM 44.6 °F 38.1 °F 19.4 °F 37% 30.17 in 10.0 mi West 13.8 mph 20.7 mph N/A   Clear
10:55 AM 44.6 °F 38.8 °F 19.4 °F 37% 30.17 in 10.0 mi WSW 11.5 mph 18.4 mph N/A   Clear
11:15 AM 44.6 °F 37.8 °F 17.6 °F 34% 30.16 in 10.0 mi WSW 15.0 mph 21.9 mph N/A   Clear
11:35 AM 46.4 °F 40.7 °F 17.6 °F 32% 30.16 in 10.0 mi West 12.7 mph - N/A   Clear
11:55 AM 48.2 °F - 19.4 °F 32% 30.14 in 10.0 mi WNW 11.5 mph 18.4 mph N/A   Clear
12:15 PM 48.2 °F - 17.6 °F 30% 30.14 in 10.0 mi West 17.3 mph 20.7 mph N/A   Clear
12:35 PM 50.0 °F - 19.4 °F 30% 30.13 in 10.0 mi West 15.0 mph 18.4 mph N/A   Clear
12:55 PM 50.0 °F - 19.4 °F 30% 30.12 in 10.0 mi West 12.7 mph 17.3 mph N/A   Clear
1:15 PM 50.0 °F - 17.6 °F 28% 30.11 in 10.0 mi West 10.4 mph 19.6 mph N/A   Clear
1:35 PM 51.8 °F - 19.4 °F 28% 30.09 in 10.0 mi West 9.2 mph - N/A   Clear
1:55 PM 51.8 °F - 17.6 °F 26% 30.10 in 10.0 mi West 13.8 mph 21.9 mph N/A   Clear
2:15 PM 51.8 °F - 17.6 °F 26% 30.09 in 10.0 mi WSW 10.4 mph 20.7 mph N/A   Clear
2:35 PM 51.8 °F - 17.6 °F 26% 30.09 in 10.0 mi West 16.1 mph 21.9 mph N/A   Clear
2:55 PM 53.6 °F - 17.6 °F 24% 30.09 in 10.0 mi West 13.8 mph 21.9 mph N/A   Clear
3:15 PM 53.6 °F - 17.6 °F 24% 30.09 in 10.0 mi West 9.2 mph 18.4 mph N/A   Clear
3:35 PM 53.6 °F - 17.6 °F 24% 30.09 in 10.0 mi West 11.5 mph 17.3 mph N/A   Clear
3:55 PM 53.6 °F - 17.6 °F 24% 30.10 in 10.0 mi WSW 11.5 mph 17.3 mph N/A   Clear
4:15 PM 51.8 °F - 17.6 °F 26% 30.11 in 10.0 mi West 12.7 mph 19.6 mph N/A   Clear
4:35 PM 51.8 °F - 19.4 °F 28% 30.12 in 10.0 mi WSW 6.9 mph 11.5 mph N/A   Clear
4:55 PM 51.8 °F - 17.6 °F 26% 30.13 in 10.0 mi WSW 9.2 mph - N/A   Clear
5:15 PM 50.0 °F - 19.4 °F 30% 30.13 in 10.0 mi West 6.9 mph - N/A   Clear
5:35 PM 48.2 °F - 19.4 °F 32% 30.14 in 10.0 mi West 9.2 mph - N/A   Clear
5:55 PM 46.4 °F 43.5 °F 19.4 °F 34% 30.15 in 10.0 mi West 5.8 mph - N/A   Clear
6:15 PM 44.6 °F 42.2 °F 19.4 °F 37% 30.16 in 10.0 mi West 4.6 mph - N/A   Clear
6:35 PM 44.6 °F 42.2 °F 21.2 °F 39% 30.16 in 10.0 mi WNW 4.6 mph - N/A   Clear
6:55 PM 44.6 °F - 21.2 °F 39% 30.16 in 10.0 mi Calm Calm - N/A   Clear
7:15 PM 41.0 °F 39.0 °F 23.0 °F 49% 30.17 in 10.0 mi West 3.5 mph - N/A   Clear
7:35 PM 41.0 °F 39.0 °F 23.0 °F 49% 30.18 in 10.0 mi West 3.5 mph - N/A   Clear
7:55 PM 41.0 °F 38.0 °F 23.0 °F 49% 30.19 in 10.0 mi West 4.6 mph - N/A   Clear
8:15 PM 41.0 °F 38.0 °F 23.0 °F 49% 30.19 in 10.0 mi WNW 4.6 mph - N/A   Clear
8:35 PM 41.0 °F - 23.0 °F 49% 30.20 in 10.0 mi Calm Calm - N/A   Clear
8:55 PM 41.0 °F 39.0 °F 24.8 °F 53% 30.21 in 10.0 mi West 3.5 mph - N/A   Clear
9:15 PM 41.0 °F 38.0 °F 23.0 °F 49% 30.21 in 10.0 mi WNW 4.6 mph - N/A   Clear
9:35 PM 41.0 °F 38.0 °F 23.0 °F 49% 30.22 in 10.0 mi West 4.6 mph - N/A   Clear
9:55 PM 41.0 °F 39.0 °F 23.0 °F 49% 30.22 in 10.0 mi West 3.5 mph - N/A   Clear
10:15 PM 41.0 °F 37.1 °F 23.0 °F 49% 30.22 in 10.0 mi West 5.8 mph - N/A   Clear
10:35 PM 41.0 °F 37.1 °F 23.0 °F 49% 30.24 in 10.0 mi West 5.8 mph - N/A   Clear
10:55 PM 41.0 °F 37.1 °F 23.0 °F 49% 30.23 in 10.0 mi WNW 5.8 mph - N/A   Clear
11:15 PM 41.0 °F 35.8 °F 23.0 °F 49% 30.24 in 10.0 mi West 8.1 mph - N/A   Clear
11:35 PM 41.0 °F 35.8 °F 21.2 °F 45% 30.24 in 10.0 mi West 8.1 mph - N/A   Clear
11:55 PM 41.0 °F 35.2 °F 21.2 °F 45% 30.24 in 10.0 mi West 9.2 mph - N/A   Clear